Tampa, FL

2:04 PM EDT on June 22, 2017 (GMT -0400)
Tampa International

Weather History for KTPA - May, 2013

Change the Weather History Date:

Thursday, May 2, 2013

  Actual Average Record
Temperature  
Mean Temperature 73 °F 75 °F  
Max Temperature 80 °F 85 °F 97 °F (1990)
Min Temperature 66 °F 66 °F 52 °F (1999)
Degree Days  
Heating Degree Days 0 0  
Month to date heating degree days 0 0  
Since 1 July heating degree days 400 538  
Cooling Degree Days 8 11  
Month to date cooling degree days 15 21  
Year to date cooling degree days 593 481  
Growing Degree Days 23 (Base 50)    
Moisture  
Dew Point 67 °F    
Average Humidity 84    
Maximum Humidity 93    
Minimum Humidity 74    
Precipitation  
Precipitation 0.01 in 0.05 in 3.11 in (2014)
Month to date precipitation 0.95 0.10  
Year to date precipitation 8.22 10.20  
Sea Level Pressure  
Sea Level Pressure 29.91 in    
Wind  
Wind Speed 4 mph (ENE)    
Max Wind Speed 13 mph    
Max Gust Speed 18 mph    
Visibility 9 miles    
Events Rain , Thunderstorm    
T = Trace of Precipitation, MM = Missing Value Source: NWS Daily Summary

Daily Weather History Graph

Daily Weather History Graph

Search for Another Location

Airport or City:

Trip Planner

Search our weather history database for the weather conditions in past years. The results will help you decide how hot, cold, wet, or windy it might be!

Date:

Astronomy

May. 02, 2013 Rise Set
Actual Time 6:49 AM EDT 8:05 PM EDT
Civil Twilight 6:24 AM EDT 8:30 PM EDT
Nautical Twilight 5:54 AM EDT 8:59 PM EDT
Astronomical Twilight 5:24 AM EDT 9:30 PM EDT
Moon 1:58 AM EDT (5/2) 1:29 PM EDT (5/2)
Length of Visible Light 14h 05m
Length of Day
13h 16m
Waning Gibbous, 48% of the Moon is Illuminated
May 2
Waning Gibbous
May 9
New
May 18
First Quarter
May 25
Full
May 31
Last Quarter

Hourly Weather History & Observations

Time (EDT) Temp. Dew Point Humidity Pressure Visibility Wind Dir Wind Speed Gust Speed Precip Events Conditions
12:53 AM 69.1 °F 68.0 °F 96% 29.99 in 5.0 mi ENE 3.5 mph - 0.00 in Rain Light Rain
1:04 AM 69.8 °F 66.2 °F 88% 29.98 in 6.0 mi ENE 3.5 mph - 0.01 in Rain Light Rain
1:27 AM 69.8 °F 66.2 °F 88% 29.97 in 10.0 mi ENE 5.8 mph - 0.01 in   Mostly Cloudy
1:53 AM 66.9 °F 64.0 °F 90% 29.97 in 8.0 mi ENE 8.1 mph - 0.01 in Rain Light Rain
2:53 AM 66.9 °F 64.9 °F 93% 29.95 in 10.0 mi East 3.5 mph - N/A   Overcast
3:26 AM 66.2 °F 64.4 °F 94% 29.94 in 10.0 mi Variable 4.6 mph - N/A   Overcast
3:33 AM 66.2 °F 64.4 °F 94% 29.94 in 10.0 mi ENE 4.6 mph - N/A   Overcast
3:53 AM 68.0 °F 64.9 °F 90% 29.94 in 10.0 mi ENE 4.6 mph - N/A   Overcast
4:28 AM 66.2 °F 64.4 °F 94% 29.94 in 3.0 mi East 4.6 mph - 0.00 in Rain Light Rain
4:43 AM 66.2 °F 64.4 °F 94% 29.93 in 5.0 mi ENE 9.2 mph - 0.01 in Rain Light Rain
4:53 AM 66.0 °F 64.0 °F 93% 29.94 in 6.0 mi ENE 4.6 mph - 0.01 in   Overcast
5:15 AM 66.2 °F 64.4 °F 94% 29.94 in 10.0 mi ENE 5.8 mph - N/A   Mostly Cloudy
5:53 AM 66.0 °F 64.0 °F 93% 29.94 in 10.0 mi Variable 3.5 mph - N/A   Mostly Cloudy
6:00 AM 66.2 °F 64.4 °F 94% 29.94 in 10.0 mi ENE 4.6 mph - N/A   Mostly Cloudy
6:43 AM 66.2 °F 64.4 °F 94% 29.94 in 10.0 mi NE 3.5 mph - N/A   Mostly Cloudy
6:53 AM 66.9 °F 64.9 °F 93% 29.94 in 10.0 mi ENE 3.5 mph - N/A   Mostly Cloudy
7:25 AM 66.2 °F 64.4 °F 94% 29.94 in 10.0 mi NE 6.9 mph - N/A   Overcast
7:53 AM 68.0 °F 64.9 °F 90% 29.94 in 10.0 mi NE 5.8 mph - N/A   Overcast
8:53 AM 69.1 °F 64.9 °F 87% 29.95 in 10.0 mi NE 6.9 mph - N/A   Overcast
9:53 AM 71.6 °F 66.2 °F 83% 29.95 in 10.0 mi ENE 8.1 mph - N/A   Overcast
10:21 AM 71.6 °F 66.2 °F 83% 29.94 in 10.0 mi ENE 9.2 mph - N/A   Overcast
10:53 AM 72.0 °F 66.9 °F 84% 29.95 in 10.0 mi ENE 6.9 mph - N/A   Overcast
11:00 AM 73.4 °F 66.2 °F 78% 29.95 in 10.0 mi NE 6.9 mph - N/A   Overcast
11:48 AM 73.4 °F 68.0 °F 83% 29.94 in 10.0 mi ENE 3.5 mph - N/A   Overcast
11:53 AM 75.0 °F 68.0 °F 79% 29.94 in 10.0 mi NE 5.8 mph - N/A   Overcast
12:53 PM 77.0 °F 68.0 °F 74% 29.91 in 10.0 mi East 3.5 mph - N/A   Overcast
1:53 PM 78.1 °F 69.1 °F 74% 29.90 in 10.0 mi Variable 5.8 mph - N/A   Overcast
2:53 PM 78.1 °F 69.1 °F 74% 29.88 in 10.0 mi SSW 8.1 mph - N/A   Mostly Cloudy
3:26 PM 78.8 °F 69.8 °F 74% 29.88 in 10.0 mi SW 9.2 mph - N/A   Mostly Cloudy
3:53 PM 77.0 °F 69.1 °F 76% 29.88 in 10.0 mi SW 5.8 mph - N/A Thunderstorm Thunderstorm
4:53 PM 78.1 °F 66.0 °F 66% 29.84 in 10.0 mi Calm Calm - N/A   Overcast
5:53 PM 77.0 °F 68.0 °F 74% 29.84 in 10.0 mi Variable 4.6 mph - N/A   Overcast
6:53 PM 73.0 °F 69.1 °F 87% 29.84 in 10.0 mi Calm Calm - 0.00 in   Overcast
7:53 PM 73.9 °F 69.1 °F 85% 29.84 in 10.0 mi NNE 3.5 mph - N/A   Mostly Cloudy
8:53 PM 73.0 °F 69.1 °F 87% 29.85 in 10.0 mi NE 4.6 mph - N/A   Mostly Cloudy
9:14 PM 73.4 °F 69.8 °F 88% 29.85 in 10.0 mi ENE 3.5 mph - N/A   Mostly Cloudy
9:53 PM 73.0 °F 69.1 °F 87% 29.86 in 10.0 mi ENE 5.8 mph - N/A   Overcast
10:09 PM 71.6 °F 69.8 °F 94% 29.86 in 10.0 mi NE 4.6 mph - N/A   Overcast
10:35 PM 71.6 °F 69.8 °F 94% 29.86 in 10.0 mi Calm Calm - N/A   Scattered Clouds
10:53 PM 72.0 °F 69.1 °F 91% 29.86 in 10.0 mi Calm Calm - N/A   Scattered Clouds
11:53 PM 71.1 °F 69.1 °F 93% 29.85 in 10.0 mi Calm Calm - N/A   Scattered Clouds